#�ϑ�����,���ϕ���,���ϕ���,�ő啗��,�ő啗����������,�ő�u�ԕ���,�ő�u�ԕ�����������
#(�N����),(m/s)   ,(16����),(m/s)   ,(16����)        ,(m/s)       ,(16����)            
2017/12/5 0:01,1.5,14,1.5,14,3.5,14
2017/12/5 0:02,1.5,15,1.6,14,2.6,13
2017/12/5 0:03,1.6,14,1.6,14,3,12
2017/12/5 0:04,1.7,14,1.7,14,4.1,9
2017/12/5 0:05,1.5,13,1.7,14,1.9,9
2017/12/5 0:06,1.4,13,1.5,14,3.3,1
2017/12/5 0:07,1.5,13,1.5,14,3.7,1
2017/12/5 0:08,1.7,14,1.7,14,3.1,14
2017/12/5 0:09,1.8,14,1.8,14,2.6,14
2017/12/5 0:10,1.7,14,1.8,14,2.1,15
2017/12/5 0:11,1.5,14,1.7,14,1.1,14
2017/12/5 0:12,1.3,14,1.5,14,0.5,16
2017/12/5 0:13,1.3,15,1.3,14,1.5,1
2017/12/5 0:14,1.3,15,1.3,14,3.3,15
2017/12/5 0:15,1.3,15,1.3,14,1.5,12
2017/12/5 0:16,1.3,14,1.3,14,5.1,12
2017/12/5 0:17,1.3,14,1.3,14,3.5,12
2017/12/5 0:18,1.3,14,1.3,14,4.8,15
2017/12/5 0:19,1.4,14,1.4,14,3.9,15
2017/12/5 0:20,1.4,14,1.4,14,2.4,16
2017/12/5 0:21,1.4,14,1.4,14,1.9,16
2017/12/5 0:22,1.5,14,1.5,14,1.5,16
2017/12/5 0:23,1.6,14,1.6,14,4.2,16
2017/12/5 0:24,1.5,14,1.6,14,4.3,16
2017/12/5 0:25,1.6,14,1.6,14,1.5,14
2017/12/5 0:26,1.5,14,1.6,14,2.6,14
2017/12/5 0:27,1.4,14,1.5,14,2.4,15
2017/12/5 0:28,1.3,14,1.4,14,3.1,16
2017/12/5 0:29,1.2,14,1.3,14,3.2,11
2017/12/5 0:30,1.5,14,1.5,14,4.2,12
2017/12/5 0:31,1.7,13,1.7,13,3.6,12
2017/12/5 0:32,1.7,13,1.7,13,1.8,13
2017/12/5 0:33,1.6,13,1.7,13,2.1,15
2017/12/5 0:34,1.6,13,1.6,13,2.4,12
2017/12/5 0:35,1.6,13,1.6,13,1.9,11
2017/12/5 0:36,1.6,13,1.6,13,2.5,13
2017/12/5 0:37,1.5,13,1.6,13,2.1,13
2017/12/5 0:38,1.4,13,1.5,13,1.3,1
2017/12/5 0:39,1.3,13,1.4,13,1.3,16
2017/12/5 0:40,1.1,13,1.3,13,1.9,11
2017/12/5 0:41,1,13,1,13,3.2,12
2017/12/5 0:42,1.1,13,1.1,13,2.9,13
2017/12/5 0:43,1.1,13,1.1,13,2,13
2017/12/5 0:44,1.1,13,1.1,13,2.6,15
2017/12/5 0:45,1.3,13,1.3,13,3.2,15
2017/12/5 0:46,1.5,14,1.5,13,5.1,13
2017/12/5 0:47,1.7,14,1.7,14,5.7,14
2017/12/5 0:48,2,14,2,14,4.3,15
2017/12/5 0:49,2,14,2,14,3.7,15
2017/12/5 0:50,2.1,14,2.1,14,3.1,1
2017/12/5 0:51,2,14,2.1,14,2.7,16
2017/12/5 0:52,2,14,2,14,2,16
2017/12/5 0:53,1.9,14,1.9,14,1,11
2017/12/5 0:54,1.9,14,1.9,14,3.1,7
2017/12/5 0:55,1.9,14,1.9,14,3,8
2017/12/5 0:56,1.8,13,1.9,14,3,7
2017/12/5 0:57,1.6,9,1.8,14,2.9,6
2017/12/5 0:58,1.5,6,1.6,14,1.8,4
2017/12/5 0:59,1.5,6,1.5,14,3.2,4
2017/12/5 1:00,1.6,6,1.6,14,3.7,3
2017/12/5 1:01,1.7,6,1.7,14,3,5
2017/12/5 1:02,1.8,5,1.8,14,2.5,4
2017/12/5 1:03,1.8,5,1.8,14,1.9,4
2017/12/5 1:04,1.7,5,1.8,14,2.1,16
2017/12/5 1:05,1.6,4,1.7,14,1.9,2
2017/12/5 1:06,1.5,3,1.6,13,1.8,1
2017/12/5 1:07,1.4,3,1.5,6,2,15
2017/12/5 1:08,1.4,2,1.4,6,1.3,16
2017/12/5 1:09,1.3,2,1.4,6,2.2,1
2017/12/5 1:10,1.2,2,1.3,6,2.2,3
2017/12/5 1:11,1.1,2,1.2,6,2.1,3
2017/12/5 1:12,1.1,2,1.1,5,2.6,1
2017/12/5 1:13,1.1,2,1.1,5,3.6,16
2017/12/5 1:14,1.1,2,1.2,5,2.2,1
2017/12/5 1:15,1,2,1.1,4,0.3,3
2017/12/5 1:16,1,1,1,3,0.4,16
2017/12/5 1:17,0.9,2,1,3,0.6,4
2017/12/5 1:18,0.9,2,0.9,2,2.1,16
2017/12/5 1:19,0.9,2,0.9,2,2.2,2
2017/12/5 1:20,1.1,2,1.1,2,3.2,2
2017/12/5 1:21,1,1,1.1,2,3.1,1
2017/12/5 1:22,1,1,1,2,0.6,15
2017/12/5 1:23,0.8,1,0.9,2,1.1,16
2017/12/5 1:24,0.8,1,0.8,2,1.6,16
2017/12/5 1:25,0.9,1,0.9,2,1.3,15
2017/12/5 1:26,0.9,1,0.9,2,1,13
2017/12/5 1:27,1,16,1,2,1.5,15
2017/12/5 1:28,1.1,16,1.1,2,3.3,15
2017/12/5 1:29,1.2,16,1.2,16,4.2,15
2017/12/5 1:30,1.2,15,1.2,16,3.5,14
2017/12/5 1:31,1.5,14,1.5,14,4.9,14
2017/12/5 1:32,1.8,14,1.8,14,5.7,13
2017/12/5 1:33,2.1,14,2.1,14,4.5,12
2017/12/5 1:34,2.2,13,2.2,13,4.1,15
2017/12/5 1:35,2.5,13,2.5,13,6.3,16
2017/12/5 1:36,2.8,13,2.8,13,4.5,14
2017/12/5 1:37,2.9,13,2.9,13,3.9,14
2017/12/5 1:38,2.9,13,2.9,13,6.1,12
2017/12/5 1:39,3,13,3,13,5.7,12
2017/12/5 1:40,2.9,13,3,13,3.5,15
2017/12/5 1:41,2.8,14,2.9,13,3.9,16
2017/12/5 1:42,2.6,14,2.8,13,2.7,14
2017/12/5 1:43,2.5,14,2.6,13,3.9,12
2017/12/5 1:44,2.4,14,2.5,13,4.1,12
2017/12/5 1:45,2.3,14,2.4,13,3.1,15
2017/12/5 1:46,2.1,14,2.2,13,3.8,2
2017/12/5 1:47,2.1,14,2.1,13,2.4,16
2017/12/5 1:48,2,15,2.1,13,2.9,15
2017/12/5 1:49,1.8,15,2,13,2.7,16
2017/12/5 1:50,1.8,15,1.8,13,2.4,14
2017/12/5 1:51,1.7,15,1.8,14,3.6,15
2017/12/5 1:52,1.8,15,1.8,14,4.7,15
2017/12/5 1:53,1.9,15,1.9,14,3.6,16
2017/12/5 1:54,1.9,15,1.9,14,3.3,15
2017/12/5 1:55,1.9,15,1.9,14,2.2,12
2017/12/5 1:56,2,15,2,14,5,13
2017/12/5 1:57,2.2,14,2.2,14,5.7,13
2017/12/5 1:58,2.2,14,2.2,14,3.2,13
2017/12/5 1:59,2.2,14,2.3,14,2.2,16
2017/12/5 2:00,2.1,14,2.2,14,1.8,16
2017/12/5 2:01,2.1,14,2.1,14,2.1,1
2017/12/5 2:02,1.9,14,2.1,14,2.1,14
2017/12/5 2:03,1.8,14,1.9,14,1.5,13
2017/12/5 2:04,1.8,14,1.8,14,2.4,15
2017/12/5 2:05,1.9,14,1.9,14,3.9,16
2017/12/5 2:06,1.9,15,1.9,14,4.4,16
2017/12/5 2:07,1.6,15,1.8,14,1.5,13
2017/12/5 2:08,1.6,15,1.6,14,3.2,12
2017/12/5 2:09,1.8,15,1.8,14,3.7,12
2017/12/5 2:10,1.9,14,1.9,14,3.3,16
2017/12/5 2:11,1.9,14,1.9,14,1.4,16
2017/12/5 2:12,1.8,15,1.9,14,0.8,3
2017/12/5 2:13,1.7,15,1.8,14,1,14
2017/12/5 2:14,1.7,15,1.7,14,1.9,14
2017/12/5 2:15,1.5,15,1.6,14,2.2,15
2017/12/5 2:16,1.4,14,1.5,14,2.6,15
2017/12/5 2:17,1.6,14,1.6,14,5.8,13
2017/12/5 2:18,1.6,15,1.7,14,5.1,15
2017/12/5 2:19,1.5,15,1.5,14,5.7,11
2017/12/5 2:20,1.4,15,1.5,14,5.1,10
2017/12/5 2:21,1.6,14,1.6,14,3.9,12
2017/12/5 2:22,1.6,14,1.6,15,2.6,11
2017/12/5 2:23,1.7,14,1.7,15,2.2,16
2017/12/5 2:24,1.9,14,1.9,14,4.4,16
2017/12/5 2:25,1.9,14,1.9,14,3,15
2017/12/5 2:26,2,14,2,14,3.2,16
2017/12/5 2:27,1.7,14,1.9,14,1.9,14
2017/12/5 2:28,1.6,14,1.7,14,1,11
2017/12/5 2:29,1.5,14,1.7,14,2.5,9
2017/12/5 2:30,1.6,13,1.6,14,2.9,9
2017/12/5 2:31,1.4,13,1.5,14,1.9,8
2017/12/5 2:32,1.4,13,1.4,14,2,13
2017/12/5 2:33,1.5,12,1.5,14,3.5,9
2017/12/5 2:34,1.5,12,1.5,14,3.8,13
2017/12/5 2:35,1.4,12,1.5,14,2.5,15
2017/12/5 2:36,1.4,11,1.4,14,2.7,15
2017/12/5 2:37,1.3,10,1.4,14,1.9,6
2017/12/5 2:38,1.3,10,1.3,14,1.1,9
2017/12/5 2:39,1.4,10,1.4,13,3.1,9
2017/12/5 2:40,1.3,10,1.4,13,2.1,5
2017/12/5 2:41,1.3,10,1.3,13,1,11
2017/12/5 2:42,1.3,10,1.3,13,1.1,9
2017/12/5 2:43,1.2,10,1.3,12,2.7,8
2017/12/5 2:44,1.1,9,1.2,12,1.4,13
2017/12/5 2:45,1.1,9,1.1,12,2,10
2017/12/5 2:46,1.1,9,1.1,11,1.8,10
2017/12/5 2:47,1.1,10,1.1,10,1.6,10
2017/12/5 2:48,1,10,1.1,10,0.5,14
2017/12/5 2:49,0.9,9,1,10,0.8,3
2017/12/5 2:50,0.9,9,0.9,10,1.3,3
2017/12/5 2:51,0.9,9,0.9,10,1.3,4
2017/12/5 2:52,0.9,7,0.9,10,1.1,1
2017/12/5 2:53,1,2,1,10,5.8,14
2017/12/5 2:54,1.2,16,1.2,1,4.3,12
2017/12/5 2:55,1.2,16,1.2,1,2.6,13
2017/12/5 2:56,1.4,16,1.4,16,4.5,13
2017/12/5 2:57,1.5,15,1.5,15,3,14
2017/12/5 2:58,1.6,15,1.6,15,2.5,13
2017/12/5 2:59,1.6,14,1.6,15,2.2,12
2017/12/5 3:00,1.6,14,1.6,15,3.2,10
2017/12/5 3:01,1.6,13,1.6,15,4.1,13
2017/12/5 3:02,1.8,13,1.8,13,4.8,13
2017/12/5 3:03,1.8,13,1.9,13,3.9,15
2017/12/5 3:04,1.7,13,1.8,13,4.3,15
2017/12/5 3:05,1.9,13,1.9,13,6.1,12
2017/12/5 3:06,1.9,13,1.9,13,5.2,14
2017/12/5 3:07,2,13,2,13,3.9,8
2017/12/5 3:08,2.1,13,2.1,13,3.8,9
2017/12/5 3:09,2.1,12,2.1,13,1.6,10
2017/12/5 3:10,2.2,12,2.2,12,2.9,9
2017/12/5 3:11,2.3,12,2.3,12,3,9
2017/12/5 3:12,2.2,11,2.3,12,2.4,9
2017/12/5 3:13,2.1,10,2.1,12,1.8,8
2017/12/5 3:14,2,10,2.1,12,2.5,10
2017/12/5 3:15,1.9,10,2,12,3,10
2017/12/5 3:16,1.7,9,1.9,12,2,8
2017/12/5 3:17,1.6,9,1.7,12,2.2,9
2017/12/5 3:18,1.5,9,1.6,12,2.5,7
2017/12/5 3:19,1.5,9,1.5,12,1.9,9
2017/12/5 3:20,1.4,9,1.5,12,1.6,6
2017/12/5 3:21,1.3,9,1.4,11,1.4,8
2017/12/5 3:22,1.2,8,1.3,11,1.8,9
2017/12/5 3:23,1.3,8,1.3,10,2.5,7
2017/12/5 3:24,1.2,8,1.3,10,2.7,8
2017/12/5 3:25,1.1,7,1.2,10,1.3,2
2017/12/5 3:26,1,7,1.1,9,1.1,3
2017/12/5 3:27,1,6,1,9,1.6,3
2017/12/5 3:28,1,6,1,9,2.2,3
2017/12/5 3:29,1,5,1,9,1.5,5
2017/12/5 3:30,0.9,4,1,9,0.4,7
2017/12/5 3:31,0.9,4,0.9,9,1.3,11
2017/12/5 3:32,0.8,4,0.9,8,0.8,10
2017/12/5 3:33,0.7,4,0.8,8,0.9,7
2017/12/5 3:34,0.7,5,0.7,8,1.3,8
2017/12/5 3:35,0.7,6,0.7,7,1.5,8
2017/12/5 3:36,0.6,7,0.7,7,0.5,13
2017/12/5 3:37,0.7,9,0.7,6,1.3,14
2017/12/5 3:38,0.5,10,0.7,5,0.9,14
2017/12/5 3:39,0.5,11,0.5,5,1.1,12
2017/12/5 3:40,0.6,11,0.6,4,1.3,12
2017/12/5 3:41,0.7,11,0.7,4,1.9,11
2017/12/5 3:42,0.8,12,0.8,4,1.9,11
2017/12/5 3:43,0.8,12,0.8,12,1.5,13
2017/12/5 3:44,0.9,12,0.9,12,2.7,12
2017/12/5 3:45,1.1,12,1.1,12,3.2,12
2017/12/5 3:46,1.2,12,1.2,12,2.6,10
2017/12/5 3:47,1.2,12,1.2,12,1.9,10
2017/12/5 3:48,1.2,12,1.2,12,1.6,12
2017/12/5 3:49,1.3,12,1.3,12,1.8,1
2017/12/5 3:50,1.3,12,1.3,12,1.8,16
2017/12/5 3:51,1.2,12,1.3,12,1.5,16
2017/12/5 3:52,1.1,12,1.2,12,2.1,14
2017/12/5 3:53,1.3,13,1.3,12,4.9,14
2017/12/5 3:54,1.3,14,1.3,12,3.2,16
2017/12/5 3:55,1.2,14,1.3,12,2.2,16
2017/12/5 3:56,1.3,14,1.3,12,4.1,13
2017/12/5 3:57,1.3,15,1.3,12,3,16
2017/12/5 3:58,1.4,15,1.4,15,2.6,12
2017/12/5 3:59,1.4,14,1.4,15,1.6,15
2017/12/5 4:00,1.5,14,1.5,14,3.1,16
2017/12/5 4:01,1.6,14,1.6,14,3.1,16
2017/12/5 4:02,1.6,14,1.6,14,3.2,14
2017/12/5 4:03,1.6,14,1.6,14,3.7,12
2017/12/5 4:04,1.6,13,1.6,14,4.2,10
2017/12/5 4:05,1.6,13,1.6,14,3.7,13
2017/12/5 4:06,1.5,13,1.6,14,1.6,15
2017/12/5 4:07,1.6,12,1.6,14,2.2,9
2017/12/5 4:08,1.6,12,1.6,14,2,8
2017/12/5 4:09,1.6,11,1.6,14,1.8,9
2017/12/5 4:10,1.5,11,1.6,14,2.6,12
2017/12/5 4:11,1.5,10,1.5,14,2,10
2017/12/5 4:12,1.5,10,1.5,14,2.7,9
2017/12/5 4:13,1.4,10,1.5,14,2.7,10
2017/12/5 4:14,1.4,10,1.4,13,3.8,12
2017/12/5 4:15,1.6,10,1.6,13,5,12
2017/12/5 4:16,1.7,10,1.7,10,3.8,14
2017/12/5 4:17,1.9,10,1.9,10,4.7,15
2017/12/5 4:18,1.8,11,1.9,10,2.5,15
2017/12/5 4:19,1.8,11,1.8,10,2.5,11
2017/12/5 4:20,2,12,2,12,4.3,16
2017/12/5 4:21,2.2,13,2.2,13,5.6,16
2017/12/5 4:22,2.2,14,2.3,14,3,16
2017/12/5 4:23,2.1,14,2.2,14,1.5,2
2017/12/5 4:24,1.9,14,2.1,14,1.9,15
2017/12/5 4:25,1.7,15,1.9,14,1.1,14
2017/12/5 4:26,1.6,15,1.7,14,3,16
2017/12/5 4:27,1.5,15,1.6,14,3.9,16
2017/12/5 4:28,1.7,15,1.7,14,3.1,15
2017/12/5 4:29,1.7,15,1.8,14,3.7,16
2017/12/5 4:30,1.5,15,1.7,14,1.4,14
2017/12/5 4:31,1.3,15,1.5,14,2.6,12
2017/12/5 4:32,1.4,14,1.4,14,3,13
2017/12/5 4:33,1.6,14,1.6,14,2.6,13
2017/12/5 4:34,1.6,14,1.6,14,2.2,13
2017/12/5 4:35,1.7,14,1.7,15,1.8,14
2017/12/5 4:36,1.8,14,1.8,15,3.2,10
2017/12/5 4:37,1.6,13,1.8,15,3,9
2017/12/5 4:38,1.7,13,1.7,15,5.2,11
2017/12/5 4:39,2,12,2,12,5.4,10
2017/12/5 4:40,2.3,12,2.3,12,6,9
2017/12/5 4:41,2.4,12,2.4,12,5.4,9
2017/12/5 4:42,2.4,12,2.4,12,2.7,13
2017/12/5 4:43,2.4,12,2.5,12,2.5,12
2017/12/5 4:44,2.4,12,2.4,12,3.8,10
2017/12/5 4:45,2.5,11,2.5,12,4.3,10
2017/12/5 4:46,2.5,12,2.5,12,2,12
2017/12/5 4:47,2.5,12,2.5,12,2.1,15
2017/12/5 4:48,2.3,12,2.5,12,2.2,13
2017/12/5 4:49,1.9,12,2.2,12,1.9,15
2017/12/5 4:50,1.7,12,1.9,12,2.2,12
2017/12/5 4:51,1.6,13,1.7,12,2.5,13
2017/12/5 4:52,1.7,12,1.7,12,3.2,12
2017/12/5 4:53,1.7,12,1.7,12,3.6,12
2017/12/5 4:54,1.7,12,1.8,12,2.1,12
2017/12/5 4:55,1.5,13,1.6,11,2.4,14
2017/12/5 4:56,1.5,13,1.5,12,2,11
2017/12/5 4:57,1.5,13,1.5,12,2.2,13
2017/12/5 4:58,1.5,12,1.5,12,2.9,11
2017/12/5 4:59,1.6,12,1.6,12,2.5,10
2017/12/5 5:00,1.6,12,1.6,12,2.4,11
2017/12/5 5:01,1.5,12,1.6,12,1.9,11
2017/12/5 5:02,1.4,12,1.5,12,1.6,12
2017/12/5 5:03,1.3,12,1.4,12,1.6,13
2017/12/5 5:04,1.3,12,1.3,12,1.9,13
2017/12/5 5:05,1.2,12,1.3,12,0.8,13
2017/12/5 5:06,1.2,12,1.2,12,2,12
2017/12/5 5:07,1.2,12,1.2,12,1.1,13
2017/12/5 5:08,1,13,1.2,12,1,15
2017/12/5 5:09,0.9,13,1,12,0.9,12
2017/12/5 5:10,0.8,13,0.9,12,1.3,10
2017/12/5 5:11,0.9,13,0.9,12,2,9
2017/12/5 5:12,0.9,12,0.9,12,2.4,9
2017/12/5 5:13,0.9,12,0.9,12,2,9
2017/12/5 5:14,0.9,11,0.9,12,1.8,11
2017/12/5 5:15,1.1,11,1.1,12,2.2,11
2017/12/5 5:16,1.2,11,1.2,12,2.4,11
2017/12/5 5:17,1.3,11,1.3,11,2.2,12
2017/12/5 5:18,1.4,11,1.4,11,2.2,12
2017/12/5 5:19,1.6,11,1.6,11,4.3,13
2017/12/5 5:20,1.8,11,1.8,11,4.3,13
2017/12/5 5:21,1.9,11,1.9,11,2.6,12
2017/12/5 5:22,1.9,11,1.9,11,2.9,10
2017/12/5 5:23,1.8,12,1.8,11,1.5,10
2017/12/5 5:24,1.8,11,1.8,11,1.5,9
2017/12/5 5:25,1.8,11,1.8,11,3,11
2017/12/5 5:26,1.9,11,1.9,11,3.7,10
2017/12/5 5:27,1.9,11,1.9,11,4.2,9
2017/12/5 5:28,2,11,2,11,3.6,10
2017/12/5 5:29,2.1,11,2.1,11,3.7,9
2017/12/5 5:30,2,10,2,11,3.3,10
2017/12/5 5:31,2,10,2.1,11,3.3,10
2017/12/5 5:32,2.1,10,2.1,11,3.3,12
2017/12/5 5:33,2.2,10,2.2,10,3.3,11
2017/12/5 5:34,2.3,11,2.3,10,2.9,10
2017/12/5 5:35,2.3,11,2.4,11,2.1,10
2017/12/5 5:36,2.2,11,2.3,11,3.1,11
2017/12/5 5:37,2,11,2.1,11,1.5,12
2017/12/5 5:38,1.8,11,2,11,1.5,13
2017/12/5 5:39,1.7,11,1.8,11,2.2,13
2017/12/5 5:40,1.6,11,1.7,11,1.5,9
2017/12/5 5:41,1.4,11,1.6,11,2,9
2017/12/5 5:42,1.4,11,1.4,11,2.1,9
2017/12/5 5:43,1.3,11,1.4,11,2.1,10
2017/12/5 5:44,1.2,11,1.3,11,2,9
2017/12/5 5:45,1.2,10,1.2,11,2,9
2017/12/5 5:46,1.2,10,1.2,11,3.1,9
2017/12/5 5:47,1.3,10,1.3,11,2.4,9
2017/12/5 5:48,1.3,10,1.3,11,1.9,10
2017/12/5 5:49,1.3,9,1.3,11,2.5,10
2017/12/5 5:50,1.4,9,1.4,11,2.4,9
2017/12/5 5:51,1.4,9,1.5,9,2.7,9
2017/12/5 5:52,1.5,9,1.5,9,2.9,10
2017/12/5 5:53,1.6,9,1.6,9,2.6,9
2017/12/5 5:54,1.6,10,1.6,9,2.9,10
2017/12/5 5:55,1.7,10,1.7,10,2.5,10
2017/12/5 5:56,1.7,10,1.7,10,2.5,10
2017/12/5 5:57,1.7,10,1.7,10,2.2,10
2017/12/5 5:58,1.7,10,1.7,10,1.5,10
2017/12/5 5:59,1.6,10,1.7,10,1.6,10
2017/12/5 6:00,1.6,10,1.6,10,1.5,11
2017/12/5 6:01,1.5,10,1.6,10,1.9,11
2017/12/5 6:02,1.4,10,1.5,10,1.6,9
2017/12/5 6:03,1.3,10,1.4,10,1.9,10
2017/12/5 6:04,1.3,10,1.3,10,1.9,10
2017/12/5 6:05,1.3,10,1.3,10,2,9
2017/12/5 6:06,1.2,10,1.3,10,2,9
2017/12/5 6:07,1.2,10,1.2,10,2.1,9
2017/12/5 6:08,1.3,10,1.3,10,2,9
2017/12/5 6:09,1.3,10,1.3,10,1.9,9
2017/12/5 6:10,1.3,10,1.3,10,1.8,10
2017/12/5 6:11,1.4,10,1.4,10,1.9,10
2017/12/5 6:12,1.4,10,1.4,10,2.2,11
2017/12/5 6:13,1.5,10,1.5,10,2.6,10
2017/12/5 6:14,1.5,10,1.5,10,2.5,11
2017/12/5 6:15,1.6,10,1.6,10,2.7,10
2017/12/5 6:16,1.6,10,1.6,10,2.5,9
2017/12/5 6:17,1.6,10,1.6,10,3.2,11
2017/12/5 6:18,1.7,10,1.7,10,3.3,10
2017/12/5 6:19,1.7,10,1.7,10,2.7,10
2017/12/5 6:20,1.8,10,1.8,10,2.9,10
2017/12/5 6:21,1.9,10,1.9,10,2.9,9
2017/12/5 6:22,1.9,10,1.9,10,2.6,9
2017/12/5 6:23,1.8,10,1.9,10,2.2,9
2017/12/5 6:24,1.8,10,1.8,10,2.6,9
2017/12/5 6:25,1.9,10,1.9,10,3,9
2017/12/5 6:26,1.9,10,1.9,10,2.7,9
2017/12/5 6:27,1.8,9,1.9,10,2.5,9
2017/12/5 6:28,1.8,9,1.8,10,2.7,11
2017/12/5 6:29,1.8,9,1.8,10,2.2,9
2017/12/5 6:30,1.7,9,1.8,10,1.9,9
2017/12/5 6:31,1.7,9,1.7,10,2,10
2017/12/5 6:32,1.6,9,1.7,10,1.9,11
2017/12/5 6:33,1.7,10,1.7,10,2.5,10
2017/12/5 6:34,1.7,10,1.7,10,2.7,10
2017/12/5 6:35,1.6,10,1.7,10,2.6,9
2017/12/5 6:36,1.6,10,1.6,10,2.6,10
2017/12/5 6:37,1.7,10,1.7,9,3,10
2017/12/5 6:38,1.7,10,1.7,9,2.9,10
2017/12/5 6:39,1.8,10,1.8,9,2.7,9
2017/12/5 6:40,1.8,10,1.8,10,2.9,10
2017/12/5 6:41,1.9,10,1.9,10,3.3,9
2017/12/5 6:42,2,10,2,10,2.7,9
2017/12/5 6:43,2,10,2,10,2.5,9
2017/12/5 6:44,1.9,9,1.9,10,2.1,9
2017/12/5 6:45,1.9,9,1.9,10,2.2,9
2017/12/5 6:46,1.8,9,1.9,10,2.2,9
2017/12/5 6:47,1.7,9,1.8,10,2,10
2017/12/5 6:48,1.6,9,1.7,10,2,9
2017/12/5 6:49,1.5,9,1.6,10,1.4,8
2017/12/5 6:50,1.4,9,1.5,10,1.9,10
2017/12/5 6:51,1.4,9,1.4,10,2.2,10
2017/12/5 6:52,1.3,10,1.4,10,1.6,10
2017/12/5 6:53,1.2,10,1.3,10,1.5,11
2017/12/5 6:54,1.2,10,1.2,9,1.3,10
2017/12/5 6:55,1.1,10,1.2,9,1.4,12
2017/12/5 6:56,1,10,1.1,9,0.8,11
2017/12/5 6:57,1,10,1,9,0.8,12
2017/12/5 6:58,0.9,11,0.9,9,0.8,11
2017/12/5 6:59,0.8,11,0.9,9,0.5,9
2017/12/5 7:00,0.8,11,0.8,9,1,9
2017/12/5 7:01,0.7,11,0.7,10,1.4,10
2017/12/5 7:02,0.6,11,0.7,10,1.1,13
2017/12/5 7:03,0.5,11,0.6,10,0.9,7
2017/12/5 7:04,0.5,11,0.5,10,1.1,11
2017/12/5 7:05,0.5,11,0.5,10,2,11
2017/12/5 7:06,0.5,11,0.5,10,1.3,12
2017/12/5 7:07,0.6,11,0.6,10,1.3,11
2017/12/5 7:08,0.6,11,0.6,11,1.3,8
2017/12/5 7:09,0.7,11,0.7,11,3.1,9
2017/12/5 7:10,0.8,11,0.8,11,3.2,11
2017/12/5 7:11,0.9,11,0.9,11,2.2,9
2017/12/5 7:12,1,11,1,11,2.6,11
2017/12/5 7:13,1.1,11,1.1,11,2.5,9
2017/12/5 7:14,1.2,11,1.2,11,2.2,11
2017/12/5 7:15,1.2,11,1.2,11,1.9,12
2017/12/5 7:16,1.2,11,1.2,11,1.4,12
2017/12/5 7:17,1.2,11,1.2,11,1.3,11
2017/12/5 7:18,1.2,11,1.2,11,1.3,8
2017/12/5 7:19,1.1,11,1.2,11,2.1,11
2017/12/5 7:20,1.1,11,1.1,11,2.7,11
2017/12/5 7:21,1.1,11,1.1,11,1.6,12
2017/12/5 7:22,1,12,1.1,11,1.6,10
2017/12/5 7:23,1,12,1,11,1.5,11
2017/12/5 7:24,0.9,11,1,11,1.5,12
2017/12/5 7:25,0.9,11,0.9,11,1.9,10
2017/12/5 7:26,0.9,11,0.9,11,2.5,13
2017/12/5 7:27,1,11,1,11,2.1,12
2017/12/5 7:28,1,12,1,11,1.5,11
2017/12/5 7:29,0.9,12,1,11,0.5,5
2017/12/5 7:30,0.8,11,0.9,11,0.6,10
2017/12/5 7:31,0.8,11,0.8,11,1.9,10
2017/12/5 7:32,0.8,12,0.9,12,2,13
2017/12/5 7:33,0.8,12,0.9,12,1.6,9
2017/12/5 7:34,0.8,12,0.8,11,0.9,9
2017/12/5 7:35,0.8,12,0.8,11,2.2,9
2017/12/5 7:36,0.9,12,0.9,11,3.9,9
2017/12/5 7:37,1.1,11,1.1,11,4.3,10
2017/12/5 7:38,1.1,11,1.1,11,2.9,13
2017/12/5 7:39,1.2,11,1.2,11,2.6,11
2017/12/5 7:40,1.3,11,1.3,11,4.1,9
2017/12/5 7:41,1.4,11,1.4,11,2.9,10
2017/12/5 7:42,1.4,11,1.4,11,2.6,10
2017/12/5 7:43,1.5,11,1.5,11,2.6,8
2017/12/5 7:44,1.6,11,1.6,11,2.5,8
2017/12/5 7:45,1.7,11,1.7,11,3.8,9
2017/12/5 7:46,1.8,11,1.8,11,4.3,11
2017/12/5 7:47,1.8,11,1.8,11,4.4,10
2017/12/5 7:48,1.8,11,1.8,11,3.6,9
2017/12/5 7:49,1.8,11,1.8,11,2.7,10
2017/12/5 7:50,1.7,11,1.8,11,1.1,16
2017/12/5 7:51,1.7,11,1.7,11,3.7,11
2017/12/5 7:52,1.7,11,1.7,11,2.2,9
2017/12/5 7:53,1.7,11,1.7,11,3.8,10
2017/12/5 7:54,1.7,11,1.7,11,2.4,10
2017/12/5 7:55,1.7,11,1.7,11,2.5,11
2017/12/5 7:56,1.5,11,1.7,11,3,10
2017/12/5 7:57,1.3,11,1.5,11,3.5,10
2017/12/5 7:58,1.4,11,1.4,11,3.9,10
2017/12/5 7:59,1.7,11,1.7,11,7,9
2017/12/5 8:00,1.9,11,1.9,11,6.3,9
2017/12/5 8:01,2,11,2,11,5.2,10
2017/12/5 8:02,2.2,11,2.2,11,4.8,10
2017/12/5 8:03,2.3,11,2.3,11,5.5,10
2017/12/5 8:04,2.5,11,2.5,11,5.6,11
2017/12/5 8:05,2.7,11,2.7,11,6.1,10
2017/12/5 8:06,3,11,3,11,6,10
2017/12/5 8:07,3.2,10,3.2,10,6.4,10
2017/12/5 8:08,3.3,10,3.3,10,5,9
2017/12/5 8:09,3.3,10,3.3,10,6.2,10
2017/12/5 8:10,3.4,10,3.4,10,5.5,10
2017/12/5 8:11,3.4,10,3.4,10,5.5,10
2017/12/5 8:12,3.5,10,3.5,10,5,11
2017/12/5 8:13,3.6,10,3.6,10,6.2,10
2017/12/5 8:14,3.6,10,3.6,10,6,10
2017/12/5 8:15,3.6,10,3.7,10,5.4,10
2017/12/5 8:16,3.5,10,3.6,10,5.1,10
2017/12/5 8:17,3.5,10,3.5,10,5.2,9
2017/12/5 8:18,3.6,10,3.6,10,5,10
2017/12/5 8:19,3.5,10,3.6,10,5.1,10
2017/12/5 8:20,3.5,10,3.5,10,5.5,9
2017/12/5 8:21,3.3,10,3.5,10,4.8,11
2017/12/5 8:22,3.3,10,3.3,10,5.1,10
2017/12/5 8:23,3.3,10,3.3,10,6,10
2017/12/5 8:24,3.4,10,3.4,10,5.8,10
2017/12/5 8:25,3.4,10,3.5,10,6.3,10
2017/12/5 8:26,3.6,10,3.6,10,5.5,10
2017/12/5 8:27,3.6,10,3.6,10,6.2,10
2017/12/5 8:28,3.8,10,3.8,10,6.7,10
2017/12/5 8:29,3.8,10,3.8,10,6,9
2017/12/5 8:30,3.8,10,3.8,10,5.2,10
2017/12/5 8:31,4,10,4,10,6.5,10
2017/12/5 8:32,4.1,10,4.1,10,6.7,10
2017/12/5 8:33,4,10,4.1,10,5.8,10
2017/12/5 8:34,4,10,4,10,6.5,10
2017/12/5 8:35,4,10,4,10,6.3,10
2017/12/5 8:36,3.9,10,4,10,4.7,10
2017/12/5 8:37,3.8,10,3.9,10,5.5,10
2017/12/5 8:38,3.7,10,3.8,10,6.9,11
2017/12/5 8:39,3.5,10,3.7,10,6.1,10
2017/12/5 8:40,3.4,10,3.5,10,5.6,10
2017/12/5 8:41,3.3,10,3.4,10,6.5,11
2017/12/5 8:42,3.4,10,3.4,10,6.2,10
2017/12/5 8:43,3.4,10,3.4,10,5.8,11
2017/12/5 8:44,3.2,10,3.4,10,3.9,9
2017/12/5 8:45,3.2,10,3.2,10,6,11
2017/12/5 8:46,3.2,10,3.3,10,7.6,9
2017/12/5 8:47,3.3,10,3.3,10,6.7,10
2017/12/5 8:48,3.4,10,3.4,10,6.1,11
2017/12/5 8:49,3.7,10,3.7,10,6.4,10
2017/12/5 8:50,3.8,11,3.8,10,6.2,9
2017/12/5 8:51,3.8,10,3.8,10,7.2,10
2017/12/5 8:52,3.9,10,3.9,10,7.2,10
2017/12/5 8:53,3.9,10,3.9,10,5.5,10
2017/12/5 8:54,4.1,10,4.1,10,5.8,10
2017/12/5 8:55,3.8,10,4.1,10,4.7,10
2017/12/5 8:56,3.7,10,3.8,10,5.8,9
2017/12/5 8:57,3.7,10,3.8,10,6.3,9
2017/12/5 8:58,3.4,10,3.7,10,4.7,9
2017/12/5 8:59,3.3,10,3.4,10,6.2,10
2017/12/5 9:00,3.2,10,3.3,10,4.4,9
2017/12/5 9:01,3.1,10,3.2,10,5.1,10
2017/12/5 9:02,3,10,3.1,10,6.1,10
2017/12/5 9:03,3.2,10,3.2,10,6.1,11
2017/12/5 9:04,3.2,10,3.2,10,6.5,10
2017/12/5 9:05,3.4,10,3.4,10,5.4,10
2017/12/5 9:06,3.6,10,3.6,10,6.3,10
2017/12/5 9:07,3.5,10,3.6,10,5.5,9
2017/12/5 9:08,3.7,10,3.7,10,5.7,9
2017/12/5 9:09,3.6,10,3.7,10,5.2,10
2017/12/5 9:10,3.6,10,3.6,10,3.3,10
2017/12/5 9:11,3.6,10,3.6,10,5.5,10
2017/12/5 9:12,3.4,10,3.6,10,3.3,10
2017/12/5 9:13,3.1,10,3.4,10,3.5,9
2017/12/5 9:14,2.8,11,3.1,10,3.8,11
2017/12/5 9:15,2.7,11,2.8,10,3.3,12
2017/12/5 9:16,2.4,11,2.7,10,2.5,11
2017/12/5 9:17,2.3,11,2.4,10,3.3,12
2017/12/5 9:18,2.1,11,2.3,10,3.7,10
2017/12/5 9:19,2.1,11,2.1,10,4.3,9
2017/12/5 9:20,2.3,11,2.3,10,4.5,10
2017/12/5 9:21,2.1,11,2.3,10,4.9,11
2017/12/5 9:22,2.2,11,2.2,10,3.8,10
2017/12/5 9:23,2.3,11,2.3,10,4.1,10
2017/12/5 9:24,2.3,11,2.3,11,3.5,10
2017/12/5 9:25,2.2,11,2.3,11,2.6,10
2017/12/5 9:26,2.3,11,2.3,11,4.9,11
2017/12/5 9:27,2.4,11,2.4,11,4.4,10
2017/12/5 9:28,2.5,10,2.5,10,4.9,10
2017/12/5 9:29,2.5,10,2.5,10,5.1,10
2017/12/5 9:30,2.5,10,2.5,10,4.4,10
2017/12/5 9:31,2.5,10,2.5,10,4.4,11
2017/12/5 9:32,2.6,10,2.6,10,4.3,10
2017/12/5 9:33,2.6,10,2.7,10,3.8,10
2017/12/5 9:34,2.8,10,2.8,10,5.4,10
2017/12/5 9:35,3,10,3,10,5.4,10
2017/12/5 9:36,2.9,10,3,10,4.7,9
2017/12/5 9:37,2.9,10,2.9,10,4.5,10
2017/12/5 9:38,3,10,3,10,5.7,10
2017/12/5 9:39,3,10,3,10,5.1,9
2017/12/5 9:40,2.9,10,3,10,4.1,9
2017/12/5 9:41,3,10,3,10,5.5,10
2017/12/5 9:42,3,10,3,10,5.5,9
2017/12/5 9:43,3.1,10,3.1,10,4.5,10
2017/12/5 9:44,3,10,3.1,10,4.4,10
2017/12/5 9:45,2.9,10,3,10,4.2,10
2017/12/5 9:46,3.1,10,3.1,10,4.9,10
2017/12/5 9:47,3.1,10,3.2,10,5,9
2017/12/5 9:48,3,10,3.1,10,3.9,11
2017/12/5 9:49,2.9,10,3,10,4.4,11
2017/12/5 9:50,3,10,3,10,5.1,11
2017/12/5 9:51,2.9,10,2.9,10,4.3,10
2017/12/5 9:52,2.8,10,2.8,10,3.8,10
2017/12/5 9:53,2.7,10,2.8,10,4.3,9
2017/12/5 9:54,2.6,10,2.7,10,3.1,11
2017/12/5 9:55,2.5,10,2.6,10,4.2,10
2017/12/5 9:56,2.5,10,2.5,10,5.4,10
2017/12/5 9:57,2.5,10,2.6,10,4.8,10
2017/12/5 9:58,2.6,10,2.6,10,4.2,10
2017/12/5 9:59,2.6,10,2.6,10,4.4,11
2017/12/5 10:00,2.7,10,2.7,10,5.5,10
2017/12/5 10:01,2.8,10,2.8,10,4.9,10
2017/12/5 10:02,2.8,10,2.8,10,6.3,10
2017/12/5 10:03,2.9,10,2.9,10,5.1,10
2017/12/5 10:04,3.2,10,3.2,10,5.6,9
2017/12/5 10:05,3.3,10,3.3,10,5,9
2017/12/5 10:06,3.2,10,3.3,10,5,10
2017/12/5 10:07,3.2,10,3.3,10,5,11
2017/12/5 10:08,3.3,10,3.3,10,5,9
2017/12/5 10:09,3.2,10,3.3,10,4.1,9
2017/12/5 10:10,3,10,3.2,10,5,10
2017/12/5 10:11,2.9,10,3,10,4.8,10
2017/12/5 10:12,2.9,10,3,10,3.6,10
2017/12/5 10:13,2.8,10,2.9,10,4.3,10
2017/12/5 10:14,2.7,10,2.8,10,5.4,10
2017/12/5 10:15,2.7,10,2.8,10,5.2,9
2017/12/5 10:16,2.8,10,2.8,10,5.5,9
2017/12/5 10:17,2.5,10,2.8,10,3.6,10
2017/12/5 10:18,2.4,10,2.5,10,3,9
2017/12/5 10:19,2.4,10,2.4,10,3.7,11
2017/12/5 10:20,2.3,10,2.4,10,4.2,9
2017/12/5 10:21,2.3,10,2.3,10,3.5,10
2017/12/5 10:22,2.4,10,2.4,10,5.7,10
2017/12/5 10:23,2.5,10,2.5,10,4.5,10
2017/12/5 10:24,2.5,10,2.5,10,4.9,10
2017/12/5 10:25,2.5,10,2.5,10,5.2,10
2017/12/5 10:26,2.6,10,2.6,10,6.9,10
2017/12/5 10:27,2.9,10,2.9,10,6.8,10
2017/12/5 10:28,3.2,10,3.2,10,6.2,11
2017/12/5 10:29,3.3,10,3.3,10,5.8,10
2017/12/5 10:30,3.7,10,3.7,10,6.9,10
2017/12/5 10:31,3.9,10,3.9,10,6,10
2017/12/5 10:32,3.8,10,3.8,10,4.8,10
2017/12/5 10:33,3.8,10,3.8,10,4.2,10
2017/12/5 10:34,3.6,10,3.8,10,3,9
2017/12/5 10:35,3.5,10,3.6,10,3.2,9
2017/12/5 10:36,3.3,10,3.5,10,2.7,10
2017/12/5 10:37,3,10,3.3,10,3.8,14
2017/12/5 10:38,2.7,10,2.9,10,2.6,10
2017/12/5 10:39,2.5,10,2.7,10,4.3,10
2017/12/5 10:40,2.2,10,2.4,10,3.5,10
2017/12/5 10:41,2.1,11,2.2,10,3.3,12
2017/12/5 10:42,1.9,11,2.1,10,3.6,12
2017/12/5 10:43,1.8,11,1.9,10,3.2,15
2017/12/5 10:44,1.8,11,1.8,10,2.7,12
2017/12/5 10:45,1.8,12,1.8,10,3.6,13
2017/12/5 10:46,1.8,12,1.8,10,2,13
2017/12/5 10:47,1.9,12,2,10,7.1,12
2017/12/5 10:48,2,12,2,10,3.7,14
2017/12/5 10:49,2,12,2,10,3.5,14
2017/12/5 10:50,1.9,13,2,10,2.1,12
2017/12/5 10:51,1.9,13,2,11,2.9,14
2017/12/5 10:52,1.8,13,1.8,12,5.2,10
2017/12/5 10:53,1.9,12,1.9,12,4.7,11
2017/12/5 10:54,1.9,12,1.9,12,2.2,9
2017/12/5 10:55,1.7,12,1.9,12,1.1,12
2017/12/5 10:56,1.7,12,1.7,12,1.9,15
2017/12/5 10:57,1.4,12,1.7,12,1.9,14
2017/12/5 10:58,1.3,12,1.4,12,1.9,11
2017/12/5 10:59,1.3,12,1.3,12,3.8,10
2017/12/5 11:00,1.4,12,1.4,13,3.7,12